This is the latest recevied weather packets stored in our database for station/object NC4M. If no packets are shown the sender has not sent any weather packets the latest 10 day(s).
| Time | Temp. | Humidity | Pressure | Rain* | Wind** | Luminosity | Snow |
|---|---|---|---|---|---|---|---|
| 1777849305 | 25° C | 35% | 1010.6 hPa | 0 mm | - | 42 W/m² | - |
| 1777849002 | 25° C | 34% | 1010.6 hPa | 0 mm | - | 42 W/m² | - |
| 1777848702 | 25° C | 33% | 1010.6 hPa | 0 mm | - | 44 W/m² | - |
| 1777848400 | 25.56° C | 32% | 1010.5 hPa | 0 mm | - | 140 W/m² | - |
| 1777848098 | 25.56° C | 33% | 1010.5 hPa | 0 mm | - | 50 W/m² | - |
| 1777847796 | 25.56° C | 33% | 1010.7 hPa | 0 mm | - | 64 W/m² | - |
| 1777847492 | 25.56° C | 32% | 1010.9 hPa | 0 mm | - | 113 W/m² | - |
| 1777847189 | 26.11° C | 32% | 1010.7 hPa | 0 mm | - | 327 W/m² | - |
| 1777846886 | 26.67° C | 30% | 1010.9 hPa | 0 mm | - | 107 W/m² | - |
| 1777846585 | 26.67° C | 32% | 1010.9 hPa | 0 mm | - | 353 W/m² | - |
| 1777846282 | 27.22° C | 31% | 1010.6 hPa | 0 mm | - | 379 W/m² | - |
| 1777845979 | 27.22° C | 35% | 1011 hPa | 0 mm | - | 383 W/m² | - |
| 1777845675 | 27.22° C | 31% | 1011 hPa | 0 mm | - | 331 W/m² | - |
| 1777845372 | 27.22° C | 34% | 1011.1 hPa | 0 mm | - | 427 W/m² | - |
| 1777845069 | 27.22° C | 33% | 1011.2 hPa | 0 mm | - | 301 W/m² | - |
| 1777844768 | 27.22° C | 32% | 1011.2 hPa | 0 mm | - | 457 W/m² | - |
| 1777844463 | 27.22° C | 31% | 1011.2 hPa | 0 mm | - | 472 W/m² | - |
| 1777844162 | 26.67° C | 34% | 1011.2 hPa | 0 mm | - | 487 W/m² | - |
| 1777843858 | 27.22° C | 31% | 1011.3 hPa | 0 mm | - | 505 W/m² | - |
| 1777843556 | 27.22° C | 34% | 1011.4 hPa | 0 mm | - | 516 W/m² | - |
| 1777843253 | 26.67° C | 33% | 1011.4 hPa | 0 mm | - | 532 W/m² | - |
| 1777842950 | 27.22° C | 32% | 1011.5 hPa | 0 mm | - | 547 W/m² | - |
| 1777842645 | 27.22° C | 34% | 1011.6 hPa | 0 mm | - | 560 W/m² | - |
| 1777842343 | 26.67° C | 35% | 1011.9 hPa | 0 mm | - | 574 W/m² | - |
| 1777842038 | 27.22° C | 35% | 1011.8 hPa | 0 mm | - | 590 W/m² | - |
* Rain latest hour (hover to see other rain measurements)
** Current wind speed in m/s (hover to see current wind gust speed)